User: anonymous   Login
Location: Wallasey
(53.4265°N, 3.0662°W)
Time: 08:57:16
(UTC+01:00)
Language:

Max Valier Satellite - Orbit

View from above orbital plane
View from above orbital plane
View from above satellite
View from above satellite

Ground track
Ground track

The orbit data is extracted from the following two-line orbital elements,

1 42778U 17036P   19230.73549533 +.00000491 +00000-0 +24410-4 0  9998
2 42778 097.3497 287.0434 0012757 018.3163 341.8530 15.22087108119527
Epoch (UTC): 18 August 2019 17:39:06
Eccentricity: 0.0012757
inclination: 97.3497°
perigee height: 491 km
apogee height: 508 km
right ascension of ascending node: 287.0434°
argument of perigee: 18.3163°
revolutions per day: 15.22087108
mean anomaly at epoch: 341.8530°
orbit number at epoch: 11952

The dashed part of the orbit path shows where the satellite is in the earth's shadow,  

DLR